[Iaude] MPEC U79: 2016 UL36 [a=2.26,e=0.50,i=7.3,H=23.0]

mpec at si.edu mpec at si.edu
Thu Oct 27 10:09:55 EDT 2016


M.P.E.C. 2016-U79                                Issued 2016 Oct. 27, 14:05 UT
 
     The Minor Planet Electronic Circulars contain information on unusual
         minor planets and routine data on comets.  They are published
    on behalf of Division F of the International Astronomical Union by the
          Minor Planet Center, Smithsonian Astrophysical Observatory,
                          Cambridge, MA 02138, U.S.A.

             Prepared using the Tamkin Foundation Computer Network

                              MPC at CFA.HARVARD.EDU
            URL http://www.minorplanetcenter.net/    ISSN 1523-6714


                                   2016 UL36
 
Observations:
     K16U36L* C2016 10 25.35256 00 49 59.148-23 08 03.52         21.3 wLEU079F51
     K16U36L  C2016 10 25.36534 00 50 00.952-23 07 06.21         21.3 wLEU079F51
     K16U36L  C2016 10 25.37807 00 50 02.741-23 06 09.21         21.2 wLEU079F51
     K16U36L  C2016 10 25.39083 00 50 04.539-23 05 11.76         21.1 wLEU079F51
     K16U36L KC2016 10 26.18349 00 52 11.29 -22 06 02.6          22.2 RoEU079291
     K16U36L KC2016 10 26.18494 00 52 11.52 -22 05 55.7          22.0 RoEU079291
     K16U36L KC2016 10 26.18639 00 52 11.72 -22 05 49.3          22.0 RoEU079291
     K16U36L  C2016 10 26.26025 00 52 22.02 -22 00 19.8          20.4 RoEU079926
     K16U36L  C2016 10 26.26510 00 52 22.69 -21 59 58.1          20.9 RoEU079926
     K16U36L  C2016 10 26.26997 00 52 23.38 -21 59 36.2          20.8 RoEU079926
     K16U36L |C2016 10 27.20319 00 54 46.87 -20 49 32.7          21.3 VuEU079807
     K16U36L |C2016 10 27.20717 00 54 47.41 -20 49 14.8          21.4 VuEU079807
     K16U36L  C2016 10 27.20873 00 54 49.46 -20 49 50.3          20.8 RoEU079926
     K16U36L |C2016 10 27.21132 00 54 47.99 -20 48 56.2          21.4 VuEU079807
     K16U36L  C2016 10 27.21326 00 54 50.03 -20 49 30.1          20.6 RoEU079926
     K16U36L  C2016 10 27.21778 00 54 50.65 -20 49 09.5          20.9 RoEU079926
 
Observer details:
291 LPL/Spacewatch II.  Observer R. A. Mastaler.  1.8-m f/2.7 reflector + CCD.
807 Cerro Tololo.  Observers T. Linder, R. Holmes.  0.61-m f/6.5 astrograph
    + CCD.
926 Tenagra II Observatory.  Observers M. Schwartz, P. R. Holvorcem.  Measurer
    M. Schwartz.  0.81-m f/7 Ritchey-Chretien + CCD.
F51 Pan-STARRS 1, Haleakala.  Observers B. Gibson, T. Goggia, S. Kahale,
    A. Schultz, M. Willman.  Measurers K. Chambers, S. Chastel, L. Denneau,
    H. Flewelling, M. Huber, E. Lilly, E. Magnier, R. Wainscoat, C. Waters,
    R. Weryk.  1.8-m Ritchey-Chretien + CCD.
 
Orbital elements:
2016 UL36                                                Earth MOID = 0.1639 AU
Epoch 2016 July 31.0 TT = JDT 2457600.5                 MPC
M 341.94261              (2000.0)            P               Q
n   0.28934909     Peri.  299.68920     +0.99180268     -0.05745418
a   2.2638864      Node    63.81168     +0.10283331     +0.88908260
e   0.5046857      Incl.    7.30723     -0.07584689     +0.45412679
P   3.41           H   23.0           G   0.15           U   7
Residuals in seconds of arc
161025 F51  0.0   0.1+    161026 291  0.2+  0.1+    161027 926  0.2+  0.2-
161025 F51  0.0   0.1+    161026 926  0.2+  0.0     161027 807  0.1+  0.0
161025 F51  0.1-  0.1-    161026 926  0.1+  0.1-    161027 926  0.5-  0.1-
161025 F51  0.0   0.0     161026 926  0.2+  0.0     161027 926  0.4-  0.5+
161026 291  0.1-  0.4-    161027 807  0.1+  0.1-
161026 291  0.3+  0.1+    161027 807  0.0   0.0

Ephemeris:
2016 UL36                a,e,i = 2.26, 0.50, 7                   q = 1.1213
Date    TT    R. A. (2000) Decl.     Delta      r     Elong.  Phase     V
2016 09 27    23 04 25.4 -52 14 04   0.1937  1.1225   124.1    47.7    21.5
...
2016 10 12    00 07 42.8 -39 18 48   0.1845  1.1280   131.1    41.8    21.2
...
2016 10 20    00 34 42.7 -29 49 16   0.1896  1.1416   136.9    36.6    21.2
...
2016 10 26    00 51 41.3 -22 19 13   0.1995  1.1563   141.2    32.6    21.2
2016 10 27    00 54 16.7 -21 04 48   0.2017  1.1592   141.8    32.0    21.2
2016 10 28    00 56 48.5 -19 50 55   0.2041  1.1621   142.4    31.4    21.2
...
2016 11 03    01 10 51.0 -12 44 45   0.2220  1.1817   145.5    28.4    21.3
...
2016 11 11    01 27 13.8 -04 23 38   0.2552  1.2128   147.4    26.1    21.6
...
2016 11 26    01 53 44.0 +07 15 16   0.3446  1.2841   144.9    26.3    22.4

A. U. Tomatic                (C) Copyright 2016 MPC           M.P.E.C. 2016-U79




More information about the Iaude mailing list